sat.trackr.live / text

‹ back to catalog

STARLINK-3445

NORAD 51717 · 2022-016D

PAYLOAD ACTIVE UNKNOWN

§ Identity

Operator
Country
US
Launch date
2022-02-21
Launch site
AFETR
Launch vehicle
Mass (kg)
RCS (m²)

Purposes: comms

External: N2YO · Heavens-Above · Gunter

§ Orbital elements

Epoch: 2026-05-24T23:45:52.185312Z

Period
95.44 min
Inclination
53.2136°
Eccentricity
0.0001458
Mean motion
15.08835752 rev/d
Perigee alt
538.7 km
Apogee alt
540.8 km
Semi-major
6,917.9 km
B*
4.8671e-5
RAAN
346.6806°
Arg perigee
78.6677°
Mean anomaly
281.4479°
Rev number
23,494

§ Raw data

STARLINK-34451 51717U 22016D   26144.99018733  .00000487  00000+0  48671-4 0  99972 51717  53.2136 346.6806 0001458  78.6677 281.4479 15.08835752234946

JSON: /api/v1/satellites/51717 · /tle

For live sub-satellite position, see the globe view (requires WebGL).

§ Visibility from observer

Set your observer location to see the next 7 days of passes ≥ 10°. The values pass through the URL so the page stays shareable.

No JS? Fill the form by hand. The geolocation button needs JavaScript.